FW2027 Weather Reports


Display with metric or nautical units.
time (UTC)temp
F
wind
direction
speed
MPH
gust
MPH
rain 1hr
in
rain 24hr
in
rain mn
in
humidity
%
barometer
mb
20260904131554 65 245 8.0 15.0 0.00 0.17 0.17 70 1012.8
20260904130054 66 263 8.0 16.0 0.00 0.17 0.17 70 1012.7
20260904124553 65 273 7.0 14.0 0.00 0.17 0.17 71 1012.6
20260904123051 64 279 5.0 16.0 0.00 0.17 0.17 70 1012.5
20260904121550 65 267 7.0 17.0 0.00 0.17 0.17 71 1012.3
20260904120100 65 263 5.0 13.0 0.00 0.17 0.17 73 1011.9
20260904114547 64 282 6.0 17.0 0.00 0.17 0.17 72 1012.0
20260904113045 64 244 7.0 17.0 0.00 0.17 0.17 73 1011.8
20260904111545 64 259 8.0 18.0 0.00 0.17 0.17 74 1011.6
20260904110042 63 268 8.0 15.0 0.00 0.17 0.17 74 1011.5
20260904104542 63 254 6.0 14.0 0.00 0.17 0.17 75 1011.4
20260904103036 62 246 4.0 9.0 0.00 0.17 0.17 79 1011.5
20260904101533 62 277 3.0 8.0 0.00 0.17 0.17 82 1011.5
20260904100039 61 303 3.0 8.0 0.00 0.17 0.17 85 1011.5
20260904094530 60 305 2.0 7.0 0.00 0.17 0.17 88 1011.2
20260904093050 60 257 4.0 9.0 0.00 0.17 0.17 91 1011.0
20260904091526 60 240 2.0 7.0 0.00 0.17 0.17 93 1010.9
20260904090024 61 292 6.0 12.0 0.00 0.17 0.17 90 1010.8
20260904084523 61 205 2.0 4.0 0.00 0.17 0.17 92 1010.3
20260904083022 61 238 1.0 4.0 0.00 0.17 0.17 92 1010.3
20260904081521 60 283 3.0 11.0 0.00 0.17 0.17 92 1010.6
20260904080020 60 237 3.0 9.0 0.00 0.17 0.17 93 1010.0
20260904074519 60 303 4.0 9.0 0.01 0.17 0.17 94 1009.8
20260904073035 60 223 6.0 11.0 0.02 0.17 0.17 95 1009.5
20260904071513 61 275 3.0 8.0 0.02 0.17 0.17 97 1009.2
20260904070016 61 284 3.0 7.0 0.03 0.17 0.17 96 1009.1
20260904064517 61 263 4.0 9.0 0.02 0.16 0.16 97 1009.2
20260904063009 62 217 4.0 8.0 0.01 0.14 0.14 96 1008.7
20260904061510 62 261 3.0 9.0 0.02 0.14 0.14 96 1008.4
20260904060008 62 256 3.0 8.0 0.03 0.13 0.13 96 1008.6
20260904054509 62 281 5.0 11.0 0.05 0.13 0.13 96 1008.3
20260904053003 63 274 6.0 11.0 0.12 0.13 0.13 97 1008.0
20260904051500 63 262 4.0 12.0 0.11 0.13 0.13 96 1007.9
20260904050100 64 327 8.0 14.0 0.10 0.11 0.11 96 1007.7
20260904044555 65 264 7.0 18.0 0.08 0.09 0.09 96 1007.6
20260904043053 66 227 8.0 18.0 0.02 0.02 0.02 97 1006.7
20260904041601 67 211 6.0 14.0 0.01 0.02 0.02 96 1006.8
20260904040051 67 259 10.0 21.0 0.00 0.01 0.01 96 1006.9
20260904034550 67 215 9.0 16.0 0.00 0.01 0.01 95 1006.9
20260904033101 67 216 8.0 14.0 0.00 0.01 0.01 95 1006.9
20260904031548 67 225 9.0 16.0 0.00 0.01 0.01 94 1007.1
20260904030048 67 193 9.0 20.0 0.00 0.01 0.01 93 1007.3
20260904024547 67 209 12.0 18.0 0.00 0.01 0.01 93 1007.1
20260904023051 67 215 11.0 21.0 0.01 0.01 0.01 94 1007.1
20260904021543 67 209 10.0 20.0 0.01 0.01 0.01 95 1007.1
20260904020049 67 180 10.0 22.0 0.01 0.01 0.01 94 1007.4
20260904014606 67 224 9.0 20.0 0.01 0.01 0.01 95 1007.8
20260904013038 67 202 12.0 19.0 0.00 0.00 0.00 96 1007.9
20260904011536 66 202 10.0 20.0 0.00 0.00 0.00 96 1007.8
20260904010033 66 187 10.0 16.0 0.00 0.00 0.00 96 1008.1
20260904004531 66 205 9.0 17.0 0.00 0.00 0.00 95 1008.3
20260904003029 66 198 9.0 20.0 0.00 0.00 0.00 94 1008.4
20260904001526 66 187 11.0 22.0 0.00 0.00 0.00 93 1008.7